User: anonymous   Login
Location: �chenoz-la-M�line
(47.6009°N, 6.1354°E)
Time: 23:35:10
(UTC+00:00)
Language:

STARLINK-2109 - Orbit

View from above orbital plane
View from above orbital plane
View from above satellite
View from above satellite

Ground track
Ground track

The orbit data is extracted from the following two-line orbital elements,

1 47388U 21005AR  21110.58335648  .00038670  00000-0  26021-2 0  9992
2 47388  53.0453 150.8095 0001025  64.9730 173.7143 15.06380818  1756
Epoch (UTC): 20 April 2021 14:00:02
Eccentricity: 0.0001025
inclination: 53.0453°
perigee height: 546 km
apogee height: 548 km
right ascension of ascending node: 150.8095°
argument of perigee: 64.9730°
revolutions per day: 15.06380818
mean anomaly at epoch: 173.7143°
orbit number at epoch: 175

The dashed part of the orbit path shows where the satellite is in the earth's shadow,  

DLR